User: anonymous   Login
Location: Caltech
(34.1382°N, 118.1253°W)
Time: 15:25:53
(UTC-07:00)
Language:

Gbstr 26 Del rocket - Orbit

View from above orbital plane
View from above orbital plane
View from above satellite
View from above satellite

Ground track
Ground track

The orbit data is extracted from the following two-line orbital elements,

1 25876U 99041E   16180.47236040 -.00000096  00000-0  25983-4 0  9990
2 25876  51.7639 272.1432 0533297  77.3393 288.6597 14.03834332864939
Epoch (UTC): 28 June 2016 11:20:11
Eccentricity: 0.0533297
inclination: 51.7639°
perigee height: 493 km
apogee height: 1267 km
right ascension of ascending node: 272.1432°
argument of perigee: 77.3393°
revolutions per day: 14.03834332
mean anomaly at epoch: 288.6597°
orbit number at epoch: 86493

The dashed part of the orbit path shows where the satellite is in the earth's shadow,  

DLR